Wind_Speed
84 80 80 83 88 89 88 88 88 88 88 88 89 87 86 86 79 71 71 75 77 77 76 75 74 73 73 72 71 70 68 67 65 65 62 57 54 52 52 51 50 48 46 44 43 43 43 42 43 43 43 42 41 41 39 38 36 34 32 30 28 29 28 26 25 21 21 23 23 23 23 22 21 18 17 16 15 14 13 13 13 11 10 10 8 7 8 9
81 80 78 79 85 88 86 87 87 86 87 87 89 88 86 86 85 77 70 70 74 77 77 76 75 74 74 73 72 71 70 68 67 66 62 58 56 55 55 53 52 50 47 45 44 43 43 43 43 44 45 44 43 42 41 40 38 36 35 31 27 26 27 27 26 23 22 24 24 23 23 23 22 20 18 18 17 16 15 14 13 12 12 10 9 8 8 9
80 78 75 74 80 88 87 85 86 84 84 86 87 88 87 85 86 83 76 70 70 74 77 76 75 74 74 74 73 72 71 70 70 66 61 59 58 56 56 54 53 51 49 47 45 45 45 44 44 44 45 45 44 43 41 40 39 39 38 34 29 29 29 28 26 26 25 24 25 25 24 23 24 22 20 20 19 17 16 15 14 13 12 10 9 8 8 9
81 79 74 69 71 83 87 85 84 83 82 83 85 87 87 86 85 83 81 76 71 70 74 77 75 74 74 74 74 73 73 73 72 66 60 60 59 57 58 56 53 52 50 48 47 46 46 45 45 44 44 44 44 44 43 41 40 40 39 36 34 35 32 28 27 29 28 26 26 26 25 24 25 24 22 21 20 19 17 16 15 15 13 11 10 9 9 9
82 82 75 68 65 73 84 86 83 82 81 81 83 85 86 86 85 82 82 80 76 71 71 74 76 74 74 75 74 74 74 75 74 65 60 61 60 59 58 56 54 53 52 50 49 48 47 46 46 45 44 43 43 43 42 41 41 41 39 37 38 38 35 31 31 31 30 29 28 26 26 25 25 24 24 22 21 21 19 17 17 16 14 12 11 11 10 10
82 83 78 68 61 64 76 84 84 81 81 81 81 82 83 84 84 83 82 81 80 76 71 70 73 74 75 75 75 75 76 77 76 65 61 63 62 60 59 57 55 54 54 52 51 50 49 48 47 46 45 43 42 41 39 39 41 41 40 39 39 39 36 35 35 33 32 31 30 28 27 26 25 25 24 23 23 23 20 20 18 17 16 15 13 12 11 11
82 84 82 72 61 61 69 78 85 83 80 80 80 80 81 82 83 83 82 81 80 79 74 69 69 73 75 75 76 77 77 78 75 65 62 64 62 61 59 58 57 55 55 54 52 51 50 49 48 46 45 44 43 40 38 39 40 41 41 40 40 40 39 38 39 37 34 32 32 31 29 27 26 26 24 23 23 24 22 22 20 18 18 17 15 13 12 12
83 84 86 79 66 61 67 72 80 85 82 80 80 79 78 79 81 82 82 81 80 79 77 72 68 69 74 76 77 80 79 79 76 67 64 64 62 61 61 60 59 57 56 55 53 51 50 50 48 47 45 44 43 41 39 39 40 39 39 40 42 42 41 41 41 40 37 35 35 33 30 29 29 27 23 22 24 24 23 23 22 20 19 19 17 14 13 13
84 84 85 85 75 63 66 70 71 80 84 80 80 79 77 77 78 80 81 81 81 79 78 76 71 68 71 75 77 80 79 76 75 70 65 64 63 64 64 63 61 58 57 55 54 52 51 50 49 48 46 45 44 41 40 41 40 37 36 39 42 43 43 44 43 41 39 39 39 36 34 33 31 28 23 22 26 25 23 24 23 22 20 20 19 17 15 14
83 85 83 84 81 68 65 69 65 69 81 82 80 79 77 77 77 77 79 80 80 78 77 78 74 68 70 74 76 80 77 73 73 71 66 64 65 66 66 64 61 58 57 55 54 53 51 49 48 47 47 46 45 43 43 44 41 38 37 40 42 43 44 45 44 42 41 41 41 40 38 37 34 28 22 24 28 27 25 25 25 23 22 22 21 20 17 15
82 85 83 80 83 76 65 68 65 60 73 82 80 80 77 76 76 75 75 78 79 76 74 78 77 71 69 72 74 76 75 72 73 73 69 66 65 66 65 62 60 58 56 55 54 52 49 47 47 48 49 49 47 46 46 45 43 40 40 41 42 42 43 44 42 41 40 40 40 41 41 41 37 26 21 27 31 29 27 26 25 23 23 24 23 21 19 16
83 84 84 80 80 80 70 68 67 57 63 77 81 80 78 76 75 74 73 75 78 76 74 76 78 73 69 71 71 71 71 70 73 74 70 67 66 67 65 63 61 58 56 54 52 50 49 48 48 50 51 50 48 47 47 47 45 43 43 43 43 42 43 42 41 40 40 39 39 40 42 41 34 24 24 32 34 31 29 27 26 24 25 26 24 22 20 18
85 85 86 83 78 77 73 71 67 54 53 68 79 80 78 76 74 73 72 72 74 76 73 74 76 75 73 72 69 69 70 70 73 75 72 68 67 67 67 66 64 61 58 55 53 52 51 50 50 51 52 52 50 50 49 49 48 46 45 45 44 44 43 41 41 40 39 39 38 39 40 35 28 25 29 34 35 33 31 28 28 26 27 27 25 23 22 21
85 85 86 87 82 75 72 73 68 53 49 60 72 78 78 77 75 73 72 71 72 74 74 73 75 77 76 70 66 69 71 71 74 75 73 70 68 68 67 66 65 63 61 58 57 56 56 55 54 54 56 55 53 52 52 51 50 49 48 47 46 46 44 41 41 40 38 37 36 39 37 28 26 29 31 35 36 34 32 30 30 28 28 28 27 25 23 23
83 84 86 88 86 79 72 72 70 59 52 55 63 73 76 76 76 73 71 70 70 72 75 75 74 77 78 69 63 68 70 72 75 75 75 71 68 68 67 66 66 63 61 60 59 59 59 59 58 59 59 57 55 55 55 54 53 51 51 50 47 47 45 42 42 41 38 37 35 38 36 25 26 31 31 35 36 33 32 31 31 30 30 30 29 27 25 24
82 82 85 86 86 82 76 73 71 63 53 51 57 66 72 75 77 75 72 71 70 71 74 76 75 76 79 72 64 65 69 72 75 76 75 72 68 68 68 66 65 64 62 61 60 61 61 61 60 60 60 58 57 57 57 57 56 54 52 50 48 47 46 44 43 42 39 38 36 38 35 25 26 30 31 33 33 31 30 30 31 31 31 31 29 28 27 24
82 81 83 84 85 83 79 74 71 65 55 50 53 62 69 71 76 77 74 73 73 72 72 76 76 73 75 75 69 65 67 71 74 75 75 73 69 68 69 68 66 65 64 63 62 62 61 62 63 62 62 60 59 59 60 61 59 56 54 51 49 48 47 46 44 43 41 40 37 37 35 28 26 29 31 32 30 29 27 27 29 30 31 31 28 28 26 25
79 79 81 83 85 83 80 74 69 65 58 53 53 61 69 69 72 77 78 76 75 74 73 75 78 73 71 73 70 65 64 69 73 74 74 73 69 68 69 69 67 66 66 65 64 64 64 64 64 64 64 63 62 63 63 62 59 56 53 51 50 49 49 47 44 42 41 40 37 37 37 31 27 30 31 32 31 28 26 25 26 26 27 28 28 27 26 25
79 78 80 83 85 84 81 74 69 64 59 56 55 60 68 69 69 74 79 79 78 78 78 77 79 77 72 70 69 65 62 66 71 73 74 73 70 69 69 68 68 67 67 69 68 67 66 66 67 68 68 67 66 65 64 61 57 55 53 52 52 51 50 46 43 42 41 41 40 39 40 34 30 32 33 33 33 31 28 25 23 23 24 26 27 26 25 25
80 79 80 83 85 85 82 77 71 66 61 58 56 62 71 73 71 73 79 81 79 78 78 75 74 77 75 70 69 70 67 64 66 70 73 74 70 68 68 69 69 67 67 69 69 68 67 68 69 70 68 66 64 62 61 59 56 55 55 55 54 52 50 46 44 42 42 43 42 41 42 39 35 35 36 35 36 36 31 25 22 22 23 24 24 24 24 24
80 80 81 83 86 86 84 80 76 70 65 61 57 63 73 74 71 72 75 80 81 77 75 73 71 73 76 73 70 70 71 69 66 66 70 73 71 69 69 69 70 70 68 67 69 70 69 70 71 68 64 61 59 59 59 59 57 56 56 55 54 52 50 48 46 44 44 45 45 43 45 44 39 37 38 37 38 39 33 27 24 22 22 22 21 21 22 24
79 80 81 83 86 87 85 82 79 74 69 66 62 64 71 71 67 64 64 71 79 80 76 74 72 71 72 74 72 69 69 68 67 68 69 70 69 69 70 70 69 69 69 69 70 71 73 74 71 66 62 59 59 59 60 60 60 59 58 57 57 55 52 51 49 48 47 48 47 46 48 48 44 39 39 39 39 39 35 30 26 25 23 21 19 19 20 21
76 77 79 82 86 87 85 82 79 75 72 70 67 64 68 70 63 58 58 62 71 78 78 76 74 71 69 71 74 73 70 66 64 65 67 68 67 66 68 70 68 67 69 72 72 71 73 72 69 65 61 60 61 62 62 63 64 63 61 60 59 57 55 53 51 49 49 49 49 49 51 51 48 44 40 39 39 38 37 33 29 28 25 22 22 20 19 18
74 75 78 80 85 87 84 81 80 75 71 71 69 63 65 69 62 57 58 59 64 72 77 77 75 72 69 69 72 73 73 70 64 60 61 65 66 66 66 66 65 66 69 71 71 72 69 64 63 63 62 62 63 63 63 65 66 66 64 61 59 57 55 52 50 48 49 51 50 51 54 54 50 48 42 38 39 40 38 35 32 30 27 25 25 22 19 19
76 77 78 80 85 87 82 81 83 77 69 69 70 64 63 67 64 59 58 59 62 68 74 77 76 74 71 68 69 71 71 70 66 60 57 61 65 67 66 65 67 66 65 65 67 69 67 63 61 60 61 64 66 65 64 64 65 66 65 62 58 55 53 51 49 49 51 53 52 52 56 57 52 50 45 39 40 41 39 37 35 31 29 28 27 24 23 23
76 79 79 80 86 87 81 81 85 79 68 67 69 66 65 66 64 62 60 60 64 68 73 76 76 75 73 70 69 69 69 70 67 60 54 57 63 65 67 69 70 67 62 59 62 64 64 63 61 60 62 65 67 67 65 64 65 66 65 61 57 55 54 53 51 51 53 54 55 53 56 60 56 51 48 43 42 41 39 38 37 33 30 28 26 25 27 27
75 79 78 81 87 87 81 81 85 82 70 64 64 63 64 66 64 61 62 65 68 69 70 74 77 76 74 73 71 69 70 70 69 61 51 51 58 61 65 69 69 69 66 62 62 60 59 61 60 60 65 67 69 68 65 64 66 67 65 60 57 56 54 55 55 55 56 56 57 56 56 61 60 53 49 46 44 42 40 39 37 34 31 29 28 28 29 30
72 77 77 81 88 87 80 78 82 84 72 61 60 61 62 67 66 60 60 67 72 72 70 72 77 77 75 74 72 72 71 69 70 65 51 47 52 56 60 64 64 66 70 70 66 58 55 61 60 56 60 66 68 67 64 62 63 64 64 60 57 57 57 57 58 57 57 57 60 58 57 61 62 56 50 48 46 43 40 38 36 34 32 31 31 30 30 31
70 76 78 80 86 85 79 76 78 80 73 63 61 61 62 67 69 63 62 66 69 71 70 70 74 77 77 76 74 74 71 70 74 71 58 50 52 55 57 55 55 61 68 72 70 62 57 59 61 59 57 56 55 56 57 58 60 63 63 61 57 58 58 58 59 58 57 59 61 59 57 61 63 59 54 51 48 44 40 38 37 35 34 34 33 32 30 31
69 74 76 77 83 84 79 74 74 76 72 66 63 63 62 66 71 69 67 69 68 69 70 70 72 75 78 78 76 75 72 72 74 74 68 61 55 56 58 55 53 56 63 67 68 68 65 60 61 64 62 55 50 49 48 48 53 59 62 62 59 58 58 58 59 57 57 61 62 58 55 59 64 62 58 55 49 44 41 40 39 36 35 35 34 33 33 33
69 70 73 76 81 82 78 73 74 75 72 67 65 65 63 64 71 72 72 72 68 69 71 69 70 72 76 78 78 77 75 73 73 73 74 71 61 55 56 60 60 57 59 63 64 67 69 67 66 64 64 64 59 54 51 48 48 50 55 61 61 61 60 60 61 59 61 64 63 59 56 61 67 64 60 57 51 46 43 42 38 36 35 36 35 34 34 34
69 68 69 75 80 79 74 71 74 76 73 69 66 68 67 65 69 73 74 74 70 70 71 69 69 69 72 76 77 77 77 76 75 73 74 75 71 62 54 56 61 62 64 64 61 62 65 67 68 66 65 68 67 64 60 57 52 49 51 56 60 62 63 64 66 66 68 68 66 62 61 67 72 67 61 59 54 49 46 43 39 37 37 38 38 36 34 34
68 67 66 72 79 79 73 69 72 75 72 69 67 69 71 69 71 73 72 74 76 75 72 69 68 67 69 74 76 76 77 77 77 76 74 74 76 73 63 53 52 60 65 63 61 62 62 62 65 69 69 68 68 70 69 65 60 55 52 53 58 62 66 69 71 71 72 72 70 67 66 72 76 69 63 62 58 52 48 44 40 38 38 38 38 37 35 34
65 63 63 69 75 76 73 69 71 73 72 70 68 69 72 72 73 72 70 72 75 76 74 71 67 66 67 70 72 75 77 78 78 76 76 75 76 78 74 62 52 54 58 60 64 66 65 64 63 65 69 68 66 69 71 67 63 58 53 52 57 61 64 68 71 72 72 70 70 69 71 78 77 68 63 64 62 57 52 46 40 36 36 37 38 38 37 36
62 62 62 66 71 73 70 69 72 73 72 72 70 69 73 73 71 70 70 69 68 69 72 73 70 67 67 67 69 72 75 77 78 77 77 77 77 76 75 68 58 55 55 57 61 64 66 67 62 59 63 67 66 66 66 65 63 59 54 54 57 55 57 62 64 66 66 66 68 71 75 78 73 67 64 65 65 63 58 52 46 40 37 37 38 38 38 38
62 63 62 63 67 70 67 68 72 73 72 72 72 70 71 71 68 65 65 67 64 61 63 70 73 71 68 68 69 71 73 75 77 78 78 78 77 75 74 72 63 56 56 58 58 59 63 65 62 61 63 66 68 65 64 65 64 62 60 58 52 49 53 57 59 62 64 67 70 72 76 76 73 71 69 66 67 66 62 57 52 46 41 39 38 38 39 40
62 62 62 62 64 67 66 66 70 71 70 71 72 72 70 68 65 60 59 62 62 59 58 63 70 73 71 70 70 71 72 74 76 77 78 78 78 76 75 77 71 59 54 58 62 59 57 58 59 61 60 63 67 66 65 65 63 65 67 59 50 51 55 55 55 59 64 68 70 72 75 76 76 75 70 68 68 68 66 62 55 49 45 42 40 38 39 41
60 59 60 61 63 66 66 67 68 68 69 71 72 72 70 66 63 58 56 58 58 57 58 60 63 67 70 72 71 71 72 74 75 77 78 78 79 78 76 78 76 65 53 54 63 65 60 58 58 58 57 58 64 67 66 66 65 66 66 62 59 60 59 56 57 58 59 63 66 68 72 76 79 77 71 67 66 66 67 65 60 54 50 47 43 39 40 41
60 60 60 60 61 64 65 66 67 66 68 71 72 72 70 66 61 57 55 56 55 55 57 59 58 59 63 68 69 69 70 73 74 76 78 79 78 76 76 77 77 73 61 53 56 63 65 65 64 63 60 58 61 64 64 66 68 68 66 65 66 64 60 59 59 57 56 60 62 62 65 70 75 75 71 68 66 65 66 65 63 58 52 49 46 43 42 43
60 61 60 58 59 63 65 65 66 66 69 71 70 69 67 64 61 58 55 55 55 55 56 56 55 55 56 60 65 67 67 69 72 75 77 78 78 76 77 78 79 79 73 62 56 56 62 68 69 68 68 66 66 65 61 61 64 66 67 68 69 68 65 61 59 58 58 59 60 61 63 66 67 68 69 69 68 68 66 66 65 61 56 51 46 45 44 44
58 59 59 58 59 62 64 65 65 68 70 70 68 66 64 62 60 58 56 54 53 53 53 53 51 51 51 53 60 64 65 66 69 73 76 76 77 77 77 78 79 81 81 78 71 61 58 61 64 66 69 69 68 68 64 61 61 60 61 63 63 65 67 66 64 62 61 61 62 63 67 66 60 59 63 65 67 69 68 67 67 64 62 57 51 49 49 47
55 56 58 59 59 61 64 67 66 66 69 70 68 65 62 60 59 57 56 55 53 52 53 53 50 49 50 51 54 58 62 64 66 69 73 74 74 75 75 75 77 80 82 84 81 71 63 61 61 62 64 63 63 66 66 65 64 62 61 59 56 55 59 63 65 64 62 62 62 64 70 69 59 54 55 57 60 63 64 65 66 65 65 62 57 54 53 52
54 54 56 59 60 60 64 67 66 65 66 67 67 65 62 61 58 56 56 56 53 51 51 52 50 50 51 52 54 55 57 60 62 64 66 69 71 72 73 75 77 80 82 83 82 79 76 73 67 63 62 62 63 65 65 64 65 65 65 64 61 58 55 56 59 59 59 60 58 60 68 70 66 61 58 57 57 58 60 61 61 62 63 62 60 57 55 54
54 53 55 59 60 61 65 66 65 64 63 62 65 66 64 64 60 55 55 56 54 51 49 49 48 49 50 52 55 56 56 58 60 61 61 63 65 69 73 76 77 79 81 81 82 82 81 80 77 72 68 66 66 68 69 69 67 65 62 61 63 63 58 54 53 53 55 56 55 58 63 63 62 62 61 62 60 58 60 60 60 60 60 60 60 57 53 51
53 55 57 60 61 62 64 63 61 61 59 58 60 62 61 63 62 55 52 55 55 52 50 49 49 49 49 51 55 57 57 58 59 59 60 61 61 64 70 76 78 79 79 79 79 80 79 80 81 79 77 73 69 69 70 70 69 69 65 59 57 59 61 60 56 54 57 57 55 58 59 53 52 55 57 60 62 61 61 61 60 59 59 59 57 54 49 46
51 54 59 62 62 61 61 60 58 58 58 56 56 57 57 60 62 57 52 53 54 52 51 51 51 51 52 52 54 55 56 56 56 57 59 60 60 62 65 70 75 78 79 79 79 79 79 80 80 80 81 78 71 68 68 67 68 72 72 66 59 56 56 58 58 58 57 56 58 59 56 50 49 51 53 56 58 58 58 59 58 56 55 56 54 51 47 44
51 52 56 61 62 59 58 60 59 58 58 57 54 54 55 56 61 62 58 54 51 50 51 52 52 53 54 53 53 53 54 54 54 54 54 55 58 60 62 65 70 74 77 79 79 80 80 82 83 82 83 82 76 72 72 71 70 70 72 73 71 66 60 57 56 55 53 55 59 55 50 52 50 47 50 55 55 53 53 54 55 53 50 50 49 47 45 44
51 51 52 56 59 58 56 57 58 57 58 57 53 53 54 54 58 62 62 59 54 51 50 50 51 51 51 52 52 53 53 52 53 53 52 52 54 56 59 62 65 68 73 76 78 80 81 83 85 84 84 83 81 80 80 78 76 73 71 72 74 76 74 68 60 54 52 56 57 49 46 52 51 46 48 52 51 51 51 51 51 50 47 47 48 47 45 45
47 50 51 52 53 54 53 53 53 54 54 52 50 51 54 55 55 57 59 61 61 58 55 52 50 49 49 50 51 52 51 50 49 49 49 49 50 52 54 58 62 65 68 72 75 78 79 81 83 84 83 83 81 82 85 85 83 81 77 73 72 73 76 76 69 61 58 60 58 51 49 51 48 46 48 50 52 54 52 51 51 49 49 49 50 50 48 47
42 45 49 51 50 50 51 52 52 52 51 49 47 48 51 53 55 56 55 56 58 60 60 58 55 52 51 52 52 51 50 49 47 46 45 45 46 49 51 54 57 60 63 67 72 75 77 78 78 78 80 83 82 82 85 87 86 86 83 78 73 70 70 72 72 69 66 63 58 55 57 54 44 43 48 50 53 56 55 54 53 50 51 53 53 53 51 49
42 42 45 49 50 49 50 51 53 53 52 50 48 47 47 49 53 55 54 53 54 55 56 58 59 57 55 55 54 53 52 51 50 49 47 45 44 45 49 52 54 56 58 62 66 71 75 76 76 75 75 79 81 82 85 87 87 88 87 84 79 72 67 66 70 72 70 66 60 57 59 54 41 42 49 50 51 56 57 55 55 54 53 54 54 55 54 52
45 44 45 48 50 49 49 49 51 53 53 53 51 49 48 48 50 52 51 51 52 53 52 54 56 55 53 53 53 53 53 53 52 51 50 48 46 43 44 47 51 53 56 59 61 66 70 74 77 77 75 76 77 79 83 86 90 92 91 86 82 76 69 66 69 75 75 74 72 65 56 48 44 48 51 46 45 53 56 55 56 55 54 56 56 56 56 56
Wind_Direction
219 219 219 220 219 219 219 220 220 219 218 219 220 220 220 219 218 218 219 220 220 221 222 222 221 223 224 225 226 225 225 224 223 223 223 224 224 225 225 225 224 222 221 220 220 219 220 219 217 217 219 222 224 224 226 229 233 233 233 237 242 244 243 241 241 243 246 246 243 244 247 248 245 239 235 233 231 230 230 228 228 229 234 243 242 229 234 242
218 218 219 220 220 218 219 219 219 219 219 218 219 219 219 219 218 217 217 219 220 220 221 222 221 222 223 224 225 225 225 224 224 223 222 223 224 225 226 226 225 224 222 221 221 220 219 220 219 218 218 220 223 224 224 226 229 230 230 232 238 243 243 240 239 243 246 247 245 244 246 249 248 243 240 237 235 234 235 234 229 227 228 232 239 236 234 238
217 216 217 220 222 219 218 219 219 219 219 218 219 219 219 219 219 218 216 217 220 219 220 221 221 221 222 223 224 225 225 225 224 222 221 223 223 224 226 226 227 226 223 222 222 221 220 220 221 219 219 219 222 225 225 226 227 228 229 229 235 242 245 243 239 243 246 245 246 245 244 247 247 244 241 239 237 237 239 238 231 229 230 227 229 231 233 237
215 214 215 218 222 221 219 218 219 219 218 218 219 218 219 219 219 219 217 217 219 219 219 220 220 221 221 223 224 224 225 226 225 221 220 223 223 224 225 225 227 227 225 223 222 222 221 221 222 222 222 221 221 224 226 227 228 228 229 230 234 240 242 241 238 240 243 242 245 248 246 246 246 244 240 239 239 240 242 242 236 232 232 229 227 225 224 231
214 213 213 216 220 222 221 219 218 218 218 218 218 218 219 219 219 218 218 217 218 219 218 219 220 220 221 222 223 224 225 226 225 221 219 222 223 224 225 225 226 228 228 226 224 223 223 222 223 224 224 223 222 224 226 227 230 230 230 230 233 238 238 236 235 239 243 242 243 248 250 248 247 246 241 238 239 241 242 243 241 237 235 230 228 228 222 223
214 212 212 213 215 219 221 220 219 218 218 218 218 218 218 219 218 218 218 218 218 218 218 218 219 221 221 222 222 223 225 226 225 221 219 221 223 223 224 225 225 227 228 227 226 224 224 224 223 224 225 226 224 223 224 226 229 230 230 231 233 238 239 237 235 239 245 246 246 247 250 250 248 249 243 238 239 240 240 242 243 242 240 234 227 229 227 225
212 211 211 211 213 215 217 219 219 218 217 218 218 218 218 218 218 217 217 218 219 219 218 219 220 221 222 222 222 223 224 225 225 221 220 221 222 223 224 224 225 226 227 228 228 226 225 226 225 225 226 227 227 224 222 223 227 229 229 231 234 237 239 239 236 237 241 246 248 248 249 250 249 248 243 240 240 238 238 240 243 244 244 241 233 229 229 229
211 210 210 211 213 215 216 217 219 219 217 217 218 218 217 218 218 217 217 217 219 218 218 218 220 221 222 222 223 223 224 224 225 221 220 220 221 223 224 224 224 225 226 227 228 228 227 227 227 226 226 228 229 226 223 223 224 226 228 231 234 236 238 239 238 237 238 240 245 247 249 250 249 245 241 243 243 239 237 238 241 242 244 246 242 236 232 231
211 210 210 211 212 215 215 215 217 219 218 217 218 219 218 217 217 217 216 216 217 218 218 217 218 221 222 223 223 224 224 224 226 223 220 220 220 222 223 223 224 224 225 227 228 228 228 227 227 227 227 228 230 228 226 225 223 222 224 228 232 234 235 236 237 237 236 236 239 243 246 248 249 246 243 248 248 242 239 237 238 239 242 245 245 242 237 234
212 210 209 211 212 213 214 213 215 218 219 218 217 218 218 217 217 217 216 216 216 217 218 217 217 221 223 222 223 224 222 223 225 224 221 220 220 221 222 223 223 223 224 226 228 229 229 228 228 228 228 228 229 229 228 227 224 221 221 225 228 230 232 233 234 235 235 235 236 239 243 245 247 246 247 254 253 246 242 239 237 237 239 242 243 242 240 237
212 210 208 209 210 211 212 212 213 216 218 218 217 218 218 217 218 217 216 216 215 215 217 218 217 220 224 224 224 223 222 222 224 224 222 220 221 222 222 223 224 224 224 225 227 228 229 228 228 228 228 228 228 228 229 229 226 223 221 224 227 229 231 232 233 235 236 236 236 238 240 242 245 247 250 255 254 249 244 240 238 237 239 240 240 241 242 240
211 209 207 207 208 210 210 212 212 215 218 218 217 218 217 217 217 217 217 216 215 214 215 218 217 218 224 225 224 223 221 222 224 224 223 219 220 222 221 221 222 222 223 224 226 227 228 227 227 228 228 228 228 229 229 229 229 225 223 224 226 229 231 232 233 235 237 237 236 237 239 241 243 244 247 252 252 251 247 244 241 238 239 240 239 241 244 243
210 208 206 205 206 208 209 211 212 214 220 219 217 218 217 217 217 217 217 216 215 213 214 219 218 217 222 224 223 222 220 221 223 224 224 220 219 221 222 221 221 221 220 221 222 224 225 226 226 227 228 227 227 228 229 229 229 227 226 225 226 229 231 231 234 236 237 239 237 238 239 238 238 237 242 250 252 252 250 248 246 241 238 238 238 238 242 244
210 208 207 206 206 207 208 210 210 210 217 219 217 217 217 217 216 217 217 216 216 213 211 216 219 218 220 222 222 220 218 219 222 224 224 221 219 221 222 222 221 221 221 220 220 221 222 223 224 224 225 226 226 227 228 229 229 228 227 226 226 229 231 231 234 236 238 240 239 240 240 232 231 236 240 247 250 251 252 251 250 246 240 237 236 235 237 242
209 209 208 208 208 207 207 208 208 207 213 217 216 215 216 217 216 216 216 216 216 214 211 213 217 219 220 220 219 218 216 217 221 222 224 222 219 219 222 222 222 221 222 221 221 222 222 223 224 224 225 224 224 226 227 228 228 228 228 227 226 229 231 231 234 236 237 240 239 240 239 227 227 237 240 244 248 251 251 250 250 248 244 239 235 234 234 238
207 208 208 208 208 207 207 207 206 206 210 213 215 215 215 216 216 215 215 215 215 215 212 211 215 218 220 220 220 218 215 216 219 221 223 222 219 218 220 222 222 221 221 222 222 223 224 225 225 226 226 225 225 226 227 228 227 227 228 228 228 230 231 232 234 236 236 238 238 240 240 227 225 237 241 243 246 248 248 247 249 248 247 244 236 233 234 237
204 207 207 207 207 206 206 205 204 205 207 208 210 212 213 214 215 215 213 214 214 214 213 211 213 217 220 221 221 220 216 215 218 220 222 222 220 218 219 220 221 221 221 222 222 223 224 226 226 227 227 227 226 227 228 228 228 228 228 228 229 230 232 232 233 235 236 238 239 240 241 229 224 234 241 243 243 245 246 245 247 248 248 247 241 235 234 236
201 204 208 207 206 206 205 203 202 204 206 206 205 208 211 211 213 214 213 212 212 212 212 211 210 213 218 220 220 220 217 216 218 219 221 222 220 219 219 220 221 221 221 222 222 223 224 225 226 227 227 228 228 229 230 229 230 231 231 232 232 233 234 234 234 236 238 240 240 241 241 233 225 231 238 244 244 243 244 245 248 250 252 251 247 240 234 233
197 202 207 207 205 205 203 200 200 202 204 205 203 203 208 209 210 212 212 212 212 211 211 210 209 210 213 217 219 219 218 217 218 219 220 222 220 219 220 219 220 222 222 222 222 223 224 225 226 227 227 228 229 231 233 233 233 234 235 235 234 234 235 237 238 238 240 242 240 239 241 235 228 231 236 243 249 246 242 245 251 254 255 253 250 245 238 234
196 200 205 206 204 203 202 199 199 201 203 204 202 200 204 206 206 208 209 211 212 213 214 214 213 212 212 215 218 220 220 218 218 219 220 222 221 220 220 220 220 222 223 224 224 224 225 226 227 228 229 230 232 234 235 236 235 235 236 236 236 236 236 237 238 239 239 241 239 238 240 237 229 230 235 240 248 250 245 243 247 251 254 255 254 251 245 238
195 198 202 204 203 202 202 199 199 201 205 206 205 202 204 207 208 209 210 211 212 213 214 214 214 214 213 213 216 218 221 221 220 219 219 221 221 220 221 221 220 221 223 225 226 226 227 228 228 229 230 232 234 236 237 238 237 237 238 239 239 239 238 238 238 239 238 238 238 238 239 238 232 230 235 238 243 249 249 245 245 247 253 256 258 258 253 244
196 198 201 203 203 202 201 200 199 203 207 210 210 206 205 208 211 213 216 217 215 213 213 212 213 214 213 213 215 216 218 219 221 221 219 218 220 221 221 221 221 222 223 225 226 226 227 228 228 230 231 231 233 234 236 237 238 238 237 239 239 239 239 239 238 239 239 238 237 238 239 239 237 232 233 238 242 247 251 250 248 247 249 254 258 258 257 251
196 199 201 203 202 201 201 200 200 204 208 211 212 210 206 206 208 211 214 216 217 216 215 213 212 213 212 213 214 217 217 217 220 222 221 219 219 221 223 223 222 222 223 225 227 228 229 229 228 229 230 230 232 233 234 235 236 237 236 236 237 238 239 240 240 241 241 241 239 239 240 239 238 235 232 237 242 246 249 250 250 249 248 250 253 252 254 254
195 197 200 203 202 200 200 201 201 205 210 212 214 213 209 207 208 209 212 213 213 215 216 215 214 212 212 212 213 216 218 218 219 221 224 223 220 220 222 224 224 223 224 225 227 230 231 230 230 230 231 232 233 233 234 235 235 236 237 237 237 238 241 242 243 244 244 244 242 241 241 236 236 238 234 234 241 244 247 249 248 248 249 248 250 251 251 250
197 196 198 202 201 198 199 202 203 205 209 212 212 211 209 208 209 209 211 213 212 212 213 214 214 212 211 212 212 213 215 217 217 220 225 226 224 223 222 222 223 223 225 226 228 230 231 230 230 231 232 234 235 234 234 236 237 238 238 239 239 240 242 244 245 245 245 245 243 244 243 235 233 238 236 232 237 240 244 248 247 247 247 248 250 253 253 250
197 196 197 201 199 197 200 203 203 204 207 210 209 209 208 208 210 210 210 213 213 211 211 211 213 212 211 211 212 212 213 214 213 216 221 223 223 223 222 223 222 222 223 227 229 229 228 228 229 229 231 233 235 235 235 236 238 239 239 240 242 242 243 244 245 246 245 245 244 246 246 239 232 234 236 234 234 236 241 245 248 249 247 247 249 250 253 253
197 196 196 199 197 196 201 204 202 203 205 206 207 207 206 206 210 211 210 213 213 211 210 210 211 211 211 212 212 212 212 211 209 210 213 216 219 221 221 222 222 221 220 223 227 226 224 225 226 226 229 231 233 234 235 236 238 239 239 241 243 243 243 243 244 245 244 244 244 244 246 244 234 228 233 236 234 234 237 243 247 250 250 249 247 244 248 253
197 198 196 197 197 197 202 204 203 204 205 205 206 207 205 205 208 209 211 214 215 213 211 210 210 209 209 211 212 212 212 210 208 209 208 210 217 221 222 223 222 222 221 222 224 223 223 224 224 225 228 231 233 234 234 235 238 239 240 241 242 243 243 243 243 243 243 244 244 242 245 246 237 227 229 234 234 233 234 241 247 250 252 251 248 244 244 250
196 198 197 197 197 198 202 205 205 205 206 204 204 206 206 206 208 210 212 215 217 214 212 211 209 208 208 209 211 212 212 210 209 209 209 210 215 220 223 224 224 223 223 224 224 223 223 223 223 224 227 231 233 234 234 234 236 238 239 240 241 243 243 244 244 243 244 244 243 242 245 248 240 230 230 231 231 233 234 237 242 245 249 250 250 250 248 249
195 195 197 197 198 199 200 203 205 205 206 204 202 204 206 207 209 211 212 214 215 215 214 213 211 209 209 209 210 211 212 211 211 210 211 214 217 220 223 223 223 224 224 225 224 225 225 224 224 225 225 226 228 230 231 232 234 236 237 238 239 241 243 245 246 245 246 245 243 243 246 251 244 232 231 232 229 231 234 236 239 241 246 250 251 252 252 251
195 192 196 198 197 198 199 200 203 202 203 204 201 202 204 207 209 211 213 213 213 215 214 212 211 210 210 210 210 211 211 212 213 213 213 215 216 219 221 222 222 223 224 224 222 224 225 224 225 225 224 226 228 229 229 229 231 233 236 236 237 239 240 243 245 244 246 244 242 243 245 251 245 230 229 234 230 230 233 235 238 241 245 249 250 249 250 253
194 191 194 197 197 197 199 200 202 201 201 202 202 202 203 206 208 209 213 213 212 215 214 212 212 211 210 211 211 211 212 212 213 213 215 215 216 216 217 221 223 223 225 224 222 224 225 225 226 226 226 227 228 231 232 230 231 233 234 234 234 236 237 240 241 242 245 244 242 242 244 247 244 233 230 234 232 232 234 235 237 240 244 247 249 249 250 253
192 190 191 195 197 198 199 200 201 201 201 201 202 204 204 208 210 209 211 213 214 215 215 214 215 214 213 213 212 212 212 213 213 213 215 216 217 218 217 220 225 226 228 228 227 227 227 226 226 226 226 227 228 231 233 233 234 235 237 236 235 235 236 238 240 241 244 244 242 242 243 245 243 235 232 234 233 232 233 234 236 239 243 246 249 252 253 254
190 190 189 193 196 199 200 200 200 200 200 199 201 205 206 209 213 211 210 213 217 217 216 216 215 215 215 214 214 214 213 214 214 213 214 215 217 218 218 219 223 226 229 229 228 229 229 227 226 226 226 225 227 230 233 235 238 240 243 244 242 241 241 242 243 244 246 245 245 244 244 245 243 237 235 237 238 238 236 235 235 238 245 249 251 253 254 254
190 191 190 191 194 198 201 200 199 199 200 199 201 206 208 210 213 213 210 211 215 217 217 217 216 215 215 214 214 215 214 215 214 214 215 216 217 218 217 218 221 224 226 228 227 228 230 231 229 230 229 226 227 230 231 233 235 235 237 240 241 243 246 247 247 249 249 249 247 246 246 247 245 241 240 241 242 243 242 240 238 239 243 248 250 252 252 252
190 192 192 191 193 197 199 199 198 199 201 201 202 206 209 210 212 214 213 212 215 217 217 217 217 216 216 215 213 213 214 215 214 214 215 215 217 217 216 216 219 222 225 228 229 228 229 230 230 231 232 228 228 230 231 232 232 231 231 235 238 242 247 248 247 247 248 247 245 245 246 247 245 241 238 239 241 241 242 242 241 241 242 244 247 249 250 251
191 192 192 192 193 195 197 198 199 201 201 202 205 207 209 210 211 212 212 212 214 216 217 217 218 217 217 217 216 215 214 214 214 215 215 215 216 215 214 214 217 222 225 227 228 227 226 228 228 230 232 229 228 231 233 233 233 233 233 234 238 242 244 247 247 245 246 247 245 244 244 244 244 240 235 237 240 241 242 244 244 244 244 244 245 247 250 251
191 190 190 192 194 194 194 195 197 202 202 202 206 208 209 211 210 210 210 210 212 215 216 218 219 219 218 218 218 218 217 216 215 216 216 216 216 215 214 214 215 219 223 223 224 225 225 226 227 228 230 228 228 231 233 233 234 235 234 234 237 240 242 245 246 246 247 249 248 246 244 243 243 240 237 238 240 243 246 248 248 247 247 247 247 247 249 252
190 189 190 192 194 193 193 193 196 200 203 204 206 207 208 210 209 209 209 209 211 214 216 218 218 219 219 219 219 219 220 219 218 218 218 217 217 216 215 215 215 217 220 223 224 224 224 227 228 228 229 229 229 230 232 232 233 236 235 233 236 239 241 244 247 249 251 253 252 249 246 244 242 241 241 242 242 244 247 250 252 252 250 250 250 250 249 249
190 190 190 190 192 192 192 195 197 200 203 205 206 207 208 209 209 209 208 208 209 211 215 218 218 219 220 220 220 221 221 220 220 220 220 219 218 217 216 216 215 217 221 223 224 223 223 226 229 230 230 231 231 232 233 234 234 236 237 236 237 239 240 243 246 248 249 251 252 250 247 243 241 241 242 243 243 244 246 248 251 253 253 251 251 251 250 248
189 191 191 189 190 190 192 196 200 202 204 205 206 207 208 208 208 208 208 209 211 212 214 217 218 219 219 219 220 221 222 221 220 221 221 220 219 218 217 217 216 218 221 225 226 225 224 224 226 229 230 231 233 233 234 234 234 236 238 239 240 242 243 245 246 248 249 251 252 253 250 244 239 240 242 242 244 245 246 247 249 251 254 253 251 250 250 249
189 191 191 190 190 190 191 197 201 203 204 204 206 207 207 207 207 207 208 209 210 211 213 214 215 216 216 217 218 220 222 222 222 222 222 222 221 220 220 219 219 220 222 226 228 229 229 228 226 228 230 230 231 232 232 233 235 236 238 240 240 242 242 244 245 247 251 252 252 255 255 247 240 242 245 245 246 248 248 249 250 251 254 256 256 254 252 252
190 191 192 192 191 191 193 198 201 203 204 204 206 207 207 207 207 207 208 208 209 210 211 212 214 214 215 216 217 218 220 222 223 224 223 223 222 222 222 221 221 222 224 227 228 229 231 231 229 230 231 231 231 231 231 232 234 235 237 238 239 239 240 242 244 245 248 251 250 252 255 250 244 246 249 249 249 250 251 251 252 253 255 257 259 258 256 254
188 189 192 194 194 193 196 199 201 203 204 204 206 207 207 208 208 209 211 211 210 210 212 214 215 216 217 217 219 219 219 221 223 224 225 224 222 221 223 223 222 223 225 227 228 229 232 234 233 232 233 233 234 234 232 231 232 233 234 235 237 238 238 241 242 244 247 248 248 251 253 250 247 247 247 247 248 249 249 250 250 251 253 254 256 257 256 254
189 190 193 195 195 195 198 200 202 204 205 206 207 208 208 209 208 207 211 213 212 211 212 215 216 217 217 217 218 220 220 221 223 224 225 225 223 221 222 224 224 224 226 228 229 231 234 236 236 236 236 235 234 234 234 233 235 235 234 234 235 237 238 239 241 244 247 248 250 253 254 252 247 246 245 246 247 247 248 248 248 248 250 250 252 254 255 254
191 193 195 196 196 197 198 199 200 204 206 207 209 209 210 211 208 205 208 211 211 211 211 213 214 215 215 215 216 218 219 220 222 223 224 225 225 223 223 225 225 225 226 228 230 232 234 236 237 238 239 237 236 236 237 239 239 237 236 235 236 237 238 240 242 244 247 250 251 253 255 253 246 244 246 246 246 246 247 247 246 246 248 248 248 249 250 251
192 193 197 199 199 198 199 198 199 202 205 207 210 210 210 211 209 208 208 208 208 208 209 211 213 214 215 215 216 218 220 221 222 223 224 225 226 226 226 226 227 227 227 228 231 233 235 236 236 237 239 238 237 237 238 240 241 240 238 236 237 238 239 241 242 243 246 252 253 251 255 254 245 241 244 245 244 245 245 245 245 244 245 246 246 246 245 246
193 192 194 198 200 200 200 199 199 202 206 208 210 210 211 211 210 210 210 210 209 208 207 210 213 214 215 217 218 220 222 223 223 224 224 225 226 226 227 228 229 228 228 228 230 233 235 236 235 236 238 238 237 238 238 239 241 242 241 238 238 240 241 242 243 243 246 253 254 251 252 253 244 235 237 241 242 243 243 243 243 243 243 245 246 246 244 243
195 194 194 195 198 199 200 200 200 203 207 209 210 211 211 211 212 212 213 213 214 213 211 212 214 215 215 217 219 221 222 223 224 225 225 226 227 227 228 229 230 230 229 229 230 232 235 236 236 236 237 237 236 238 239 240 241 242 243 242 242 242 243 243 244 244 247 252 255 252 251 252 244 234 236 239 239 241 242 241 241 243 246 249 250 250 247 244
195 196 196 197 198 199 200 202 202 203 205 208 210 212 211 211 212 213 213 215 217 217 216 217 217 218 219 220 221 222 223 224 224 223 224 226 227 227 227 228 230 231 231 231 231 231 233 235 235 237 238 237 235 236 238 239 241 242 242 243 244 245 245 246 245 244 246 249 252 251 251 250 242 236 240 239 237 240 242 242 244 246 249 251 251 250 249 246
194 196 197 198 200 200 200 202 203 203 204 207 210 212 211 210 210 211 213 215 217 217 217 219 220 221 222 224 224 225 227 228 227 226 225 227 228 227 229 230 230 230 231 232 232 232 233 234 234 236 238 237 235 236 237 237 239 241 241 242 243 244 245 247 246 245 245 245 248 250 249 246 237 235 244 244 239 240 242 243 246 248 249 251 251 250 250 248
195 194 195 197 199 200 201 202 204 205 205 207 210 210 211 210 209 209 211 215 216 215 215 218 221 221 222 225 225 226 227 227 228 227 226 226 227 226 228 230 230 230 231 232 233 233 234 234 233 234 237 237 235 236 237 237 239 240 238 238 241 243 246 248 247 245 244 244 247 248 248 246 238 235 243 247 242 242 242 242 244 247 249 252 251 249 249 248
Height
5619 5626 5631 5637 5643 5650 5657 5663 5669 5676 5683 5689 5696 5702 5709 5715 5721 5729 5732 5736 5741 5746 5751 5756 5761 5764 5768 5772 5775 5780 5784 5789 5793 5797 5804 5810 5814 5817 5818 5820 5822 5826 5829 5832 5835 5837 5840 5843 5846 5848 5850 5851 5853 5856 5858 5859 5860 5862 5863 5864 5865 5866 5868 5871 5872 5873 5874 5874 5875 5875 5875 5876 5877 5879 5879 5879 5880 5881 5881 5882 5882 5883 5884 5885 5885 5886 5886 5886
5612 5620 5626 5632 5637 5643 5650 5656 5663 5670 5676 5683 5689 5696 5702 5708 5715 5722 5726 5730 5735 5740 5745 5750 5755 5759 5763 5766 5770 5775 5778 5784 5788 5794 5802 5806 5809 5812 5814 5816 5819 5822 5826 5829 5832 5835 5837 5839 5842 5845 5846 5848 5850 5853 5855 5857 5858 5860 5861 5863 5864 5865 5866 5868 5870 5872 5872 5872 5873 5874 5874 5875 5876 5878 5879 5879 5879 5879 5879 5880 5881 5882 5883 5884 5885 5885 5885 5885
5606 5614 5621 5626 5631 5637 5643 5650 5656 5663 5670 5676 5683 5690 5696 5702 5709 5715 5721 5726 5730 5735 5740 5744 5750 5754 5758 5761 5766 5769 5773 5778 5782 5791 5799 5801 5805 5808 5809 5814 5816 5819 5823 5826 5829 5831 5834 5836 5838 5841 5843 5845 5847 5850 5852 5854 5856 5858 5860 5863 5864 5863 5863 5866 5869 5870 5870 5871 5871 5872 5873 5874 5875 5876 5877 5878 5879 5879 5879 5879 5880 5880 5881 5883 5883 5884 5885 5885
5600 5607 5614 5620 5625 5631 5637 5644 5650 5657 5664 5670 5676 5683 5689 5696 5703 5709 5715 5721 5724 5729 5734 5739 5744 5749 5752 5757 5761 5764 5768 5770 5777 5791 5797 5798 5802 5803 5806 5811 5813 5816 5819 5822 5825 5828 5830 5833 5835 5838 5840 5843 5845 5847 5849 5852 5855 5856 5859 5863 5862 5860 5861 5864 5866 5866 5867 5869 5870 5870 5872 5873 5873 5874 5876 5877 5878 5879 5878 5879 5879 5879 5880 5881 5882 5883 5883 5884
5593 5600 5607 5615 5620 5625 5631 5638 5645 5651 5657 5664 5670 5677 5683 5690 5697 5703 5709 5715 5719 5724 5729 5734 5739 5743 5747 5751 5756 5760 5762 5763 5774 5789 5792 5793 5796 5799 5803 5807 5810 5813 5815 5819 5822 5825 5827 5829 5832 5835 5837 5840 5843 5845 5848 5851 5853 5855 5858 5860 5859 5858 5860 5862 5863 5864 5865 5867 5868 5869 5870 5871 5872 5873 5874 5876 5877 5878 5878 5878 5878 5878 5879 5880 5881 5881 5882 5883
5585 5593 5601 5608 5613 5618 5624 5632 5639 5644 5651 5658 5664 5670 5677 5684 5691 5697 5703 5709 5714 5719 5725 5729 5734 5738 5742 5747 5751 5753 5755 5761 5774 5785 5787 5789 5792 5795 5799 5802 5806 5809 5811 5815 5818 5821 5824 5826 5829 5832 5835 5837 5840 5843 5847 5849 5850 5853 5856 5858 5858 5857 5859 5860 5861 5862 5863 5864 5866 5867 5867 5869 5871 5872 5873 5875 5876 5876 5877 5877 5877 5878 5878 5878 5879 5880 5881 5882
5578 5586 5594 5601 5607 5611 5617 5624 5631 5638 5645 5652 5658 5665 5672 5678 5685 5690 5697 5704 5709 5715 5721 5726 5731 5734 5737 5741 5743 5746 5751 5760 5771 5780 5783 5784 5788 5791 5794 5797 5801 5805 5808 5812 5814 5818 5821 5823 5827 5830 5832 5835 5837 5841 5844 5846 5847 5850 5853 5855 5856 5856 5857 5858 5858 5860 5861 5863 5863 5864 5866 5867 5868 5869 5872 5874 5874 5874 5875 5876 5877 5877 5877 5877 5878 5879 5880 5881
5571 5579 5587 5594 5601 5606 5611 5617 5624 5631 5639 5647 5653 5659 5666 5672 5678 5684 5692 5698 5704 5710 5716 5722 5727 5730 5732 5734 5737 5740 5748 5758 5766 5775 5777 5779 5785 5787 5789 5793 5797 5801 5805 5808 5811 5815 5818 5821 5824 5827 5830 5832 5834 5838 5841 5842 5843 5847 5851 5853 5853 5853 5855 5855 5855 5857 5860 5861 5861 5862 5864 5865 5865 5867 5871 5872 5872 5872 5874 5875 5875 5876 5877 5877 5877 5878 5879 5879
5564 5572 5580 5588 5595 5601 5606 5612 5619 5626 5634 5642 5648 5654 5661 5667 5672 5679 5686 5692 5698 5705 5711 5717 5723 5726 5726 5729 5732 5735 5749 5759 5762 5769 5772 5775 5780 5781 5783 5788 5793 5798 5801 5805 5807 5810 5814 5817 5821 5824 5827 5829 5832 5835 5837 5838 5840 5845 5849 5849 5849 5850 5851 5851 5852 5854 5857 5857 5858 5860 5862 5862 5863 5866 5870 5871 5869 5870 5872 5873 5873 5875 5876 5876 5876 5877 5878 5878
5559 5566 5574 5582 5590 5596 5601 5608 5615 5621 5629 5636 5643 5649 5656 5662 5667 5674 5680 5687 5694 5701 5708 5713 5720 5722 5720 5723 5725 5732 5750 5756 5756 5764 5768 5770 5774 5775 5780 5785 5789 5794 5797 5801 5804 5807 5812 5815 5818 5820 5822 5825 5828 5831 5832 5834 5837 5842 5844 5844 5844 5846 5847 5847 5849 5851 5853 5854 5856 5857 5859 5860 5861 5866 5870 5869 5867 5868 5870 5871 5872 5873 5874 5875 5875 5876 5877 5878
5552 5560 5568 5576 5584 5590 5597 5604 5610 5617 5624 5630 5638 5644 5650 5657 5663 5670 5675 5682 5690 5697 5703 5707 5715 5717 5716 5719 5722 5734 5748 5749 5751 5758 5761 5766 5769 5772 5778 5783 5787 5791 5794 5797 5800 5804 5808 5810 5813 5816 5818 5821 5824 5826 5828 5830 5834 5837 5839 5839 5841 5843 5843 5844 5847 5849 5850 5852 5854 5855 5856 5856 5859 5866 5870 5866 5863 5865 5867 5869 5871 5872 5873 5873 5874 5875 5876 5877
5544 5554 5562 5570 5578 5585 5593 5600 5606 5614 5619 5625 5633 5639 5645 5652 5659 5665 5671 5677 5685 5693 5699 5702 5709 5713 5712 5712 5719 5733 5742 5743 5748 5751 5755 5762 5764 5767 5773 5776 5781 5785 5790 5794 5797 5801 5803 5805 5808 5810 5813 5817 5820 5822 5824 5827 5829 5832 5834 5835 5838 5839 5841 5843 5845 5846 5848 5849 5851 5852 5851 5853 5860 5867 5866 5861 5861 5863 5865 5868 5870 5871 5871 5871 5872 5874 5874 5875
5538 5547 5556 5564 5572 5581 5588 5596 5603 5612 5617 5621 5628 5634 5641 5647 5654 5660 5666 5673 5680 5688 5696 5699 5705 5708 5704 5706 5717 5728 5733 5738 5742 5744 5750 5756 5759 5763 5766 5771 5775 5779 5783 5788 5791 5794 5796 5799 5803 5805 5808 5812 5815 5817 5820 5822 5824 5828 5830 5832 5834 5836 5838 5841 5843 5843 5845 5846 5849 5849 5848 5854 5861 5864 5861 5858 5859 5861 5863 5866 5868 5869 5869 5870 5871 5872 5873 5873
5532 5541 5550 5558 5567 5575 5584 5592 5600 5608 5613 5615 5622 5629 5635 5642 5649 5655 5662 5668 5675 5683 5691 5696 5699 5700 5697 5702 5713 5719 5725 5732 5735 5738 5744 5749 5755 5759 5761 5767 5771 5775 5779 5782 5784 5786 5788 5792 5795 5798 5801 5806 5810 5812 5815 5817 5820 5823 5825 5827 5830 5832 5835 5839 5840 5841 5843 5844 5846 5845 5845 5855 5860 5859 5858 5856 5856 5859 5862 5864 5865 5866 5867 5868 5869 5870 5871 5872
5526 5535 5544 5553 5562 5570 5579 5587 5595 5603 5606 5610 5618 5624 5630 5638 5644 5651 5657 5663 5670 5676 5684 5689 5690 5690 5691 5698 5706 5711 5720 5725 5727 5732 5737 5741 5749 5754 5757 5762 5766 5771 5775 5777 5779 5781 5783 5786 5788 5791 5795 5800 5804 5806 5809 5812 5815 5819 5821 5824 5827 5829 5833 5837 5837 5839 5841 5842 5843 5842 5843 5854 5857 5855 5855 5853 5854 5857 5860 5861 5861 5863 5864 5866 5867 5868 5869 5870
5520 5530 5538 5548 5557 5565 5574 5581 5590 5598 5603 5607 5614 5621 5627 5633 5639 5645 5650 5656 5663 5668 5675 5679 5681 5683 5686 5693 5700 5705 5713 5718 5721 5725 5729 5734 5743 5749 5753 5756 5761 5766 5769 5772 5775 5777 5779 5782 5784 5788 5792 5796 5799 5803 5805 5807 5811 5815 5818 5822 5825 5827 5830 5833 5835 5836 5838 5838 5840 5839 5842 5851 5854 5851 5851 5851 5853 5855 5856 5858 5858 5860 5861 5863 5865 5866 5868 5869
5514 5525 5534 5543 5552 5560 5569 5577 5586 5594 5599 5604 5610 5616 5621 5627 5632 5637 5642 5647 5653 5659 5665 5671 5676 5680 5681 5687 5695 5700 5709 5714 5715 5719 5724 5729 5737 5743 5746 5750 5755 5760 5764 5767 5769 5772 5775 5777 5780 5784 5788 5792 5796 5798 5800 5803 5809 5812 5816 5819 5822 5824 5826 5829 5831 5833 5835 5836 5838 5838 5840 5848 5851 5849 5848 5848 5850 5851 5853 5855 5855 5857 5858 5860 5863 5865 5867 5868
5509 5520 5529 5537 5547 5556 5564 5574 5584 5590 5596 5600 5604 5609 5614 5620 5624 5628 5632 5637 5643 5650 5654 5659 5667 5670 5671 5680 5690 5698 5705 5709 5711 5716 5720 5723 5731 5737 5740 5745 5750 5754 5758 5759 5762 5765 5768 5771 5775 5779 5782 5787 5791 5794 5797 5803 5809 5812 5816 5819 5820 5821 5822 5826 5830 5832 5833 5834 5837 5837 5837 5844 5848 5846 5845 5846 5846 5849 5851 5852 5853 5855 5856 5858 5860 5863 5865 5866
5503 5514 5524 5532 5541 5551 5560 5571 5578 5584 5591 5594 5597 5602 5606 5609 5613 5618 5623 5627 5632 5636 5639 5647 5656 5661 5667 5679 5689 5695 5700 5704 5707 5712 5715 5718 5725 5731 5735 5741 5746 5748 5750 5752 5756 5760 5763 5766 5768 5771 5777 5784 5790 5795 5799 5804 5809 5812 5814 5815 5816 5817 5820 5824 5828 5831 5832 5832 5833 5834 5834 5839 5844 5843 5842 5843 5842 5844 5848 5850 5852 5853 5854 5855 5857 5860 5862 5863
5497 5508 5518 5527 5536 5546 5556 5565 5571 5577 5582 5584 5589 5592 5591 5593 5599 5603 5609 5617 5626 5633 5641 5652 5661 5666 5672 5679 5684 5689 5694 5698 5702 5707 5711 5714 5720 5727 5731 5735 5740 5743 5744 5748 5754 5757 5759 5760 5761 5769 5780 5788 5792 5796 5798 5801 5806 5808 5808 5809 5811 5814 5818 5822 5824 5827 5828 5828 5830 5831 5830 5833 5839 5840 5839 5840 5839 5840 5845 5849 5850 5851 5852 5853 5855 5857 5859 5861
5492 5502 5511 5521 5530 5540 5551 5559 5566 5571 5575 5579 5583 5583 5584 5590 5595 5599 5607 5615 5623 5633 5643 5653 5660 5663 5669 5675 5681 5686 5689 5693 5697 5701 5705 5708 5714 5720 5723 5728 5734 5737 5741 5746 5749 5752 5754 5753 5760 5774 5784 5789 5791 5793 5795 5798 5801 5803 5803 5806 5808 5811 5815 5818 5820 5822 5823 5823 5826 5828 5826 5828 5833 5836 5837 5837 5836 5836 5842 5847 5848 5850 5850 5851 5853 5855 5857 5858
5489 5497 5506 5516 5525 5535 5546 5554 5562 5567 5571 5575 5576 5579 5587 5595 5602 5609 5616 5619 5623 5630 5638 5646 5651 5655 5664 5673 5678 5681 5682 5687 5691 5694 5698 5703 5707 5712 5717 5723 5728 5734 5740 5740 5740 5744 5744 5748 5765 5778 5782 5784 5786 5787 5790 5792 5794 5796 5798 5801 5803 5807 5811 5813 5815 5817 5818 5819 5822 5823 5822 5823 5828 5833 5834 5834 5834 5835 5839 5844 5846 5848 5849 5850 5852 5853 5854 5855
5485 5494 5503 5511 5521 5532 5542 5550 5558 5563 5566 5569 5572 5579 5587 5595 5602 5608 5612 5615 5621 5628 5633 5639 5643 5651 5661 5668 5673 5676 5679 5684 5688 5691 5696 5700 5704 5710 5713 5717 5723 5731 5733 5730 5734 5738 5740 5754 5770 5773 5773 5777 5779 5781 5783 5784 5786 5788 5792 5795 5798 5802 5805 5808 5811 5812 5814 5815 5817 5819 5817 5818 5823 5827 5831 5833 5833 5834 5837 5840 5843 5845 5847 5849 5850 5850 5852 5853
5480 5489 5498 5508 5518 5528 5539 5548 5553 5557 5562 5567 5573 5580 5586 5593 5599 5602 5604 5607 5614 5621 5627 5633 5639 5648 5655 5660 5667 5671 5675 5681 5685 5690 5694 5697 5703 5706 5709 5715 5721 5723 5723 5727 5733 5736 5744 5760 5766 5765 5770 5774 5773 5774 5776 5777 5780 5782 5786 5790 5795 5799 5802 5805 5807 5809 5809 5809 5812 5813 5811 5813 5818 5822 5828 5832 5831 5832 5834 5836 5840 5842 5845 5847 5847 5848 5850 5851
5476 5484 5495 5505 5513 5524 5536 5541 5544 5552 5558 5561 5567 5574 5581 5590 5596 5598 5601 5603 5606 5611 5618 5626 5633 5641 5648 5655 5660 5664 5670 5677 5682 5687 5690 5694 5699 5702 5708 5712 5714 5716 5721 5727 5731 5734 5744 5754 5757 5762 5768 5767 5763 5767 5771 5775 5777 5778 5783 5789 5794 5796 5799 5801 5803 5803 5803 5804 5807 5808 5804 5808 5815 5818 5823 5829 5828 5828 5831 5833 5836 5840 5842 5844 5844 5846 5847 5848
5473 5480 5490 5500 5509 5521 5527 5529 5538 5548 5551 5554 5562 5570 5578 5587 5592 5594 5596 5596 5597 5601 5607 5617 5625 5633 5643 5649 5652 5660 5666 5670 5678 5685 5687 5690 5693 5697 5703 5704 5707 5714 5721 5726 5726 5729 5739 5746 5752 5758 5758 5756 5756 5761 5768 5772 5773 5774 5781 5787 5789 5792 5795 5796 5797 5797 5797 5799 5801 5802 5800 5802 5809 5815 5819 5824 5825 5826 5829 5830 5833 5837 5840 5841 5843 5844 5844 5844
5471 5478 5486 5496 5505 5513 5516 5523 5535 5541 5543 5551 5561 5568 5575 5583 5588 5589 5590 5588 5586 5593 5602 5610 5617 5628 5638 5643 5649 5655 5657 5663 5675 5680 5681 5686 5687 5690 5694 5696 5703 5711 5717 5719 5716 5722 5734 5740 5745 5749 5749 5749 5749 5755 5765 5768 5768 5771 5779 5782 5784 5788 5789 5790 5790 5788 5790 5793 5794 5796 5797 5796 5802 5812 5817 5820 5823 5825 5827 5829 5831 5834 5837 5839 5840 5841 5841 5841
5468 5476 5483 5491 5501 5508 5515 5524 5532 5536 5545 5556 5562 5566 5572 5579 5583 5584 5583 5578 5578 5590 5599 5604 5612 5623 5631 5637 5644 5648 5653 5664 5672 5672 5677 5683 5684 5686 5688 5693 5701 5708 5712 5710 5711 5723 5732 5735 5741 5746 5745 5743 5748 5757 5762 5763 5765 5769 5774 5777 5780 5781 5781 5782 5781 5781 5784 5785 5786 5792 5795 5792 5796 5808 5815 5816 5819 5823 5826 5828 5830 5832 5833 5835 5837 5838 5839 5839
5463 5473 5480 5489 5498 5506 5513 5521 5529 5538 5549 5554 5559 5564 5569 5574 5577 5577 5574 5570 5576 5589 5596 5600 5608 5616 5622 5630 5636 5641 5651 5660 5662 5666 5675 5678 5678 5682 5686 5693 5701 5704 5705 5706 5714 5724 5725 5729 5737 5738 5738 5742 5750 5755 5755 5758 5762 5763 5765 5770 5774 5774 5774 5775 5773 5775 5778 5775 5780 5790 5793 5790 5792 5802 5810 5812 5817 5822 5825 5827 5827 5828 5829 5831 5833 5834 5836 5837
5458 5469 5480 5487 5493 5498 5505 5515 5526 5537 5543 5547 5555 5561 5564 5567 5568 5566 5561 5563 5574 5585 5591 5597 5604 5611 5617 5624 5629 5636 5646 5652 5656 5665 5670 5671 5675 5680 5685 5693 5696 5697 5698 5702 5711 5715 5718 5725 5727 5727 5733 5740 5744 5746 5749 5753 5754 5754 5757 5763 5767 5767 5769 5769 5767 5772 5770 5767 5778 5790 5792 5789 5787 5795 5803 5806 5814 5820 5822 5823 5823 5825 5826 5827 5829 5831 5832 5833
5457 5466 5476 5482 5488 5494 5502 5509 5518 5528 5536 5543 5549 5555 5559 5559 5558 5555 5552 5561 5576 5581 5586 5593 5600 5607 5614 5619 5624 5631 5640 5647 5654 5661 5662 5666 5671 5674 5680 5684 5685 5690 5692 5695 5703 5707 5711 5716 5716 5723 5732 5734 5736 5739 5742 5744 5744 5748 5752 5756 5760 5760 5762 5762 5762 5764 5759 5762 5780 5790 5789 5783 5779 5789 5798 5802 5811 5817 5818 5820 5821 5823 5824 5824 5826 5827 5829 5830
5457 5464 5471 5478 5487 5494 5502 5509 5517 5525 5531 5538 5544 5548 5552 5550 5547 5546 5549 5563 5573 5573 5581 5590 5596 5605 5611 5615 5622 5629 5637 5642 5648 5654 5658 5663 5666 5668 5674 5677 5679 5684 5684 5688 5698 5702 5706 5710 5715 5722 5724 5726 5730 5733 5733 5735 5738 5742 5744 5748 5751 5752 5754 5752 5753 5755 5752 5764 5780 5784 5782 5772 5769 5786 5796 5798 5806 5812 5814 5818 5820 5821 5821 5821 5822 5823 5826 5827
5456 5463 5469 5476 5485 5492 5500 5508 5515 5521 5527 5535 5540 5542 5544 5541 5537 5540 5548 5560 5565 5569 5581 5591 5597 5606 5609 5611 5618 5625 5632 5636 5643 5649 5654 5659 5661 5664 5670 5674 5678 5679 5680 5689 5697 5697 5701 5706 5709 5712 5714 5720 5725 5725 5726 5730 5734 5736 5740 5745 5745 5746 5746 5744 5747 5748 5749 5762 5772 5775 5771 5758 5761 5783 5792 5793 5800 5806 5812 5815 5817 5818 5817 5817 5819 5820 5823 5825
5456 5463 5467 5474 5483 5490 5497 5503 5509 5517 5524 5530 5533 5534 5535 5532 5533 5540 5548 5556 5563 5571 5583 5589 5595 5602 5603 5608 5616 5621 5626 5631 5638 5644 5648 5651 5652 5656 5663 5669 5672 5673 5678 5687 5689 5690 5695 5697 5700 5705 5710 5717 5720 5721 5725 5731 5734 5736 5742 5744 5741 5742 5742 5743 5746 5745 5749 5760 5764 5765 5758 5747 5762 5785 5791 5792 5795 5799 5807 5811 5814 5816 5815 5815 5817 5818 5820 5821
5455 5460 5464 5470 5478 5485 5493 5499 5505 5513 5520 5524 5527 5527 5526 5526 5531 5540 5546 5554 5561 5570 5580 5586 5592 5595 5597 5604 5612 5616 5621 5626 5633 5638 5640 5643 5645 5651 5660 5665 5668 5671 5675 5680 5683 5688 5691 5692 5700 5706 5708 5713 5717 5719 5725 5727 5727 5732 5737 5733 5732 5740 5742 5742 5745 5745 5750 5754 5752 5754 5748 5747 5768 5784 5786 5788 5788 5791 5799 5804 5810 5813 5812 5812 5813 5814 5816 5816
5452 5455 5461 5468 5474 5482 5490 5497 5503 5509 5515 5520 5521 5520 5521 5526 5533 5541 5548 5555 5561 5568 5575 5579 5583 5586 5591 5598 5603 5608 5615 5620 5626 5630 5632 5637 5642 5648 5656 5660 5664 5668 5673 5677 5680 5684 5686 5690 5698 5701 5702 5708 5713 5716 5718 5718 5721 5726 5726 5724 5732 5742 5737 5734 5738 5740 5740 5738 5739 5745 5745 5752 5767 5772 5778 5784 5782 5786 5792 5797 5805 5808 5808 5809 5808 5810 5811 5811
5448 5453 5460 5466 5473 5481 5489 5496 5502 5506 5511 5516 5516 5517 5521 5528 5535 5542 5549 5554 5559 5565 5570 5572 5574 5579 5585 5591 5596 5603 5608 5613 5619 5622 5625 5630 5634 5640 5649 5654 5659 5665 5670 5675 5677 5679 5683 5688 5692 5694 5697 5704 5708 5710 5710 5713 5717 5717 5717 5726 5737 5734 5726 5728 5731 5730 5729 5728 5732 5739 5743 5752 5758 5761 5774 5781 5779 5783 5786 5790 5799 5802 5804 5805 5805 5806 5806 5806
5447 5454 5460 5465 5472 5480 5487 5492 5497 5502 5507 5510 5512 5517 5522 5527 5533 5540 5545 5550 5556 5561 5564 5565 5569 5575 5582 5587 5593 5599 5604 5608 5613 5616 5620 5624 5628 5637 5645 5649 5656 5663 5667 5670 5672 5674 5679 5683 5686 5689 5693 5698 5701 5701 5702 5706 5709 5708 5715 5727 5727 5719 5720 5724 5722 5722 5726 5725 5728 5736 5740 5744 5748 5757 5771 5777 5779 5783 5781 5784 5791 5796 5799 5800 5801 5803 5802 5801
5446 5452 5457 5463 5471 5478 5484 5489 5493 5498 5501 5503 5507 5513 5519 5523 5530 5537 5542 5547 5551 5556 5558 5560 5566 5573 5579 5585 5591 5596 5599 5604 5609 5612 5616 5619 5625 5637 5644 5648 5655 5660 5663 5665 5667 5670 5675 5677 5679 5684 5688 5690 5691 5692 5693 5698 5702 5704 5711 5716 5713 5713 5718 5718 5717 5720 5724 5722 5725 5731 5731 5733 5745 5759 5768 5773 5777 5779 5777 5779 5783 5788 5793 5795 5796 5798 5797 5797
5444 5449 5455 5462 5469 5476 5482 5487 5491 5492 5494 5498 5505 5511 5517 5522 5528 5534 5539 5542 5546 5550 5554 5558 5564 5570 5576 5583 5588 5591 5595 5601 5605 5608 5611 5616 5624 5634 5639 5643 5650 5655 5658 5660 5662 5666 5669 5669 5673 5678 5680 5680 5681 5685 5690 5696 5700 5701 5704 5706 5707 5711 5714 5713 5713 5715 5717 5717 5719 5723 5721 5727 5747 5759 5761 5765 5769 5770 5772 5774 5775 5779 5784 5787 5791 5791 5789 5791
5444 5449 5455 5461 5467 5472 5478 5482 5484 5486 5490 5497 5503 5508 5514 5520 5526 5530 5535 5538 5543 5548 5553 5558 5563 5568 5573 5579 5582 5586 5591 5595 5599 5602 5606 5612 5619 5626 5632 5639 5646 5651 5652 5652 5653 5659 5662 5664 5669 5671 5671 5674 5678 5684 5690 5693 5695 5696 5699 5701 5705 5709 5710 5709 5707 5709 5713 5712 5715 5718 5714 5725 5747 5754 5752 5759 5761 5761 5766 5768 5769 5773 5774 5778 5783 5783 5783 5784
5444 5448 5453 5459 5464 5469 5474 5476 5479 5483 5488 5494 5499 5506 5513 5518 5522 5527 5531 5535 5540 5545 5550 5554 5559 5564 5569 5574 5578 5583 5587 5590 5594 5597 5601 5609 5616 5624 5632 5639 5643 5646 5646 5646 5650 5657 5659 5660 5663 5663 5665 5672 5676 5679 5682 5685 5689 5691 5692 5695 5700 5702 5702 5701 5701 5707 5710 5707 5713 5715 5707 5718 5743 5749 5749 5755 5755 5756 5761 5762 5765 5768 5767 5770 5774 5775 5777 5779
5441 5447 5453 5458 5463 5467 5470 5472 5476 5481 5486 5492 5499 5506 5511 5515 5519 5523 5527 5532 5537 5542 5546 5550 5555 5560 5564 5569 5573 5577 5582 5586 5590 5593 5598 5606 5614 5623 5629 5633 5636 5638 5638 5640 5645 5649 5649 5649 5653 5656 5660 5666 5667 5669 5674 5677 5680 5680 5683 5689 5693 5693 5695 5697 5698 5704 5703 5700 5708 5707 5697 5712 5739 5744 5744 5749 5750 5752 5755 5756 5760 5762 5762 5764 5765 5767 5769 5772
5440 5446 5452 5456 5460 5464 5466 5469 5474 5478 5484 5491 5496 5500 5505 5511 5517 5521 5526 5530 5534 5539 5543 5547 5552 5556 5561 5566 5569 5573 5578 5581 5584 5589 5595 5601 5609 5617 5620 5622 5626 5628 5630 5634 5639 5643 5643 5643 5648 5651 5652 5654 5655 5658 5663 5667 5670 5672 5678 5684 5686 5688 5691 5692 5693 5696 5692 5692 5701 5698 5692 5712 5736 5737 5737 5742 5744 5746 5748 5748 5751 5753 5755 5757 5757 5758 5760 5762
5441 5445 5450 5454 5458 5461 5464 5469 5476 5480 5485 5490 5493 5497 5503 5509 5514 5519 5525 5529 5532 5537 5541 5544 5549 5554 5558 5561 5565 5569 5573 5575 5579 5585 5589 5595 5603 5609 5611 5613 5618 5621 5626 5631 5634 5637 5636 5636 5640 5642 5642 5644 5647 5651 5658 5666 5670 5671 5674 5679 5682 5684 5685 5685 5688 5687 5683 5689 5696 5691 5693 5714 5729 5729 5731 5735 5736 5738 5740 5740 5742 5744 5746 5748 5749 5751 5752 5754
5441 5443 5446 5450 5455 5459 5463 5470 5476 5480 5485 5489 5492 5497 5502 5506 5512 5517 5521 5525 5528 5533 5537 5541 5545 5549 5552 5556 5560 5563 5567 5571 5575 5579 5584 5590 5597 5602 5605 5608 5611 5615 5621 5625 5625 5627 5627 5627 5631 5634 5636 5642 5649 5654 5660 5665 5665 5665 5669 5675 5678 5679 5680 5681 5680 5677 5681 5688 5688 5687 5697 5711 5719 5723 5727 5728 5727 5729 5731 5732 5734 5736 5737 5739 5742 5744 5746 5747
5439 5442 5444 5447 5451 5456 5461 5467 5473 5478 5483 5487 5491 5495 5499 5504 5509 5513 5516 5520 5525 5529 5534 5537 5540 5544 5548 5552 5556 5560 5563 5567 5571 5575 5581 5586 5591 5596 5599 5602 5605 5609 5614 5617 5618 5620 5619 5619 5625 5629 5632 5641 5649 5651 5652 5654 5655 5658 5664 5668 5670 5671 5673 5672 5670 5673 5681 5680 5676 5687 5698 5701 5710 5721 5720 5716 5718 5720 5723 5724 5726 5728 5730 5732 5735 5736 5739 5740
5437 5440 5444 5448 5451 5455 5460 5466 5472 5477 5481 5484 5488 5493 5497 5501 5505 5509 5513 5518 5522 5527 5530 5533 5537 5541 5546 5550 5553 5556 5559 5562 5566 5571 5576 5581 5585 5590 5593 5595 5598 5602 5606 5609 5611 5612 5611 5613 5622 5626 5629 5638 5645 5644 5643 5647 5649 5652 5656 5659 5662 5664 5664 5664 5666 5672 5677 5671 5671 5686 5692 5689 5703 5714 5710 5708 5711 5711 5714 5717 5718 5721 5724 5726 5726 5728 5731 5733
5436 5440 5444 5448 5452 5457 5463 5468 5473 5476 5479 5482 5486 5490 5494 5499 5503 5507 5512 5516 5519 5523 5527 5530 5534 5538 5543 5547 5549 5552 5555 5559 5563 5568 5573 5576 5580 5584 5587 5589 5592 5595 5599 5602 5604 5606 5606 5609 5616 5620 5622 5630 5636 5635 5636 5640 5641 5643 5647 5650 5654 5656 5656 5659 5662 5667 5669 5666 5669 5680 5682 5682 5697 5706 5703 5703 5703 5702 5706 5709 5712 5716 5718 5718 5719 5720 5724 5727
5436 5440 5444 5448 5452 5457 5462 5466 5469 5473 5477 5481 5484 5488 5492 5496 5501 5505 5509 5512 5516 5520 5524 5528 5531 5535 5539 5542 5545 5548 5552 5556 5560 5564 5569 5572 5574 5577 5580 5583 5585 5588 5592 5595 5597 5600 5601 5603 5610 5614 5614 5619 5625 5627 5629 5631 5632 5634 5638 5641 5644 5647 5649 5651 5656 5661 5663 5662 5667 5674 5674 5678 5694 5701 5696 5695 5696 5695 5698 5702 5706 5711 5710 5709 5712 5714 5717 5720
5434 5438 5443 5447 5451 5455 5458 5462 5466 5470 5474 5478 5481 5485 5489 5493 5497 5501 5506 5510 5513 5517 5522 5526 5528 5532 5535 5538 5541 5546 5550 5552 5554 5558 5563 5566 5568 5572 5575 5576 5579 5582 5585 5588 5591 5593 5595 5598 5605 5608 5604 5608 5619 5622 5622 5626 5627 5624 5626 5631 5636 5639 5643 5648 5653 5657 5659 5660 5663 5665 5665 5674 5691 5693 5685 5686 5690 5690 5692 5697 5700 5701 5701 5702 5704 5708 5711 5714
5432 5436 5440 5444 5449 5452 5456 5459 5463 5467 5471 5475 5479 5483 5487 5490 5494 5498 5503 5506 5509 5513 5518 5521 5524 5528 5531 5534 5539 5542 5544 5546 5549 5553 5558 5561 5563 5567 5569 5571 5574 5577 5580 5582 5584 5586 5589 5593 5598 5599 5597 5603 5613 5616 5618 5622 5614 5605 5614 5628 5634 5638 5643 5647 5649 5651 5653 5654 5655 5657 5663 5674 5683 5680 5676 5681 5686 5685 5686 5690 5690 5690 5693 5695 5698 5702 5704 5704